COSMOS 1275 DEB, 42101

Orbit data source: Space-Track

COSMOS 1275 DEB, 42101 is space debris in LEO originally from a launch on Thu, 04 Jun 1981 UTC launched from the Plesetsk Missile And Space Complex (PKMTR). Debris objects in space refer to the collection of defunct objects orbiting the Earth. Examples of debris include non-operational satellites, rocket bodies, and fragments generated from explosions, collisions, or faulty payload assembly.

Loading next visibility...
Identifier
42101, 1981-053PM
Orbit
LEO
Country
Flag of CISCIS
Related business
Manufacturer
Unknown
Mission
Spacecraft
Bus & Motor
Unknown
Mass
Unknown
Launch date (UTC)
1981-06-04 (45 years ago)
Launch vehicle
Unknown
Launch site
Plesetsk Missile And Space Complex (PKMTR)
Object type
Payload
Rocket body
Debris
Shape & HBR
Unknown shape, 0.1 m
Radar Cross Section
Small (<0.1 m²)

Expand to show TLE details & history
Last TLE update: 4 days ago

TLE from 4 days ago
0 COSMOS 1275 DEB
1 42101U 81053PM  26251.04645047  .00074691  00000-0  45506-2 0  9990
2 42101  82.7572 168.0356 0006394  73.2191 286.9740 15.10022519626382
Epoch: 2026-09-08T01:06Z
TLE epoch observation values (Epoch: 2026-09-08T01:06:53.320Z)
Latitude
-0.00005°
Longitude
164.19494°
Altitude
537.924 km
Speed
7.594 km/s
True Right ascension
11h 12m 08s
True Declination
0° 00' 00"
Sunlit
Object was in daylight at epoch
Visualization orbit readout
Latitude
Unknown
Longitude
Unknown
Altitude
Unknown
Speed
Unknown
Apparent Right ascension
Unknown
Apparent Declination
Unknown
Sunlit
N/A
Visualization observer readout
Local Sidereal Time
04:44:05
Azimuth
Unknown
Elevation
Unknown
Doppler factor
Unknown
Orbital elements
Apogee altitude
537.523 km
Perigee altitude
528.684 km
Semi-major axis
6,911.241 km
Eccentricity
0.00064
Inclination
82.7572°
RAAN
168.0356°
Arg. of periapsis
73.2191°
True anomaly
286.90391°
Mean anomaly
286.974°
Eccentric anomaly
286.93895°
Mean motion
3.77754 °/min
Orbital period
95.3 mins
BSTAR
0.0045506
Loading maneuver chart data...
Computing Atmospheric mass density...
Loading historical data...
Loading historical data...
Loading historical data...
Loading historical data...
Loading historical data...
Loading historical data...
Loading historical data...

Documentation

Showing up to 5 results
|